Location: 10033 Water Well
(34.0865°N, 106.8959°W)
Time: 19:02:18
(UTC+00:00)

Resurs 01 Rocket - Pass Details

Date: 19 April 2026
Orbit: 626 x 636 km, 97.7° (Epoch: 12 May)

Event Time Altitude Azimuth Distance (km) Brightness Sun altitude
Rises 02:15:40 0° 173° (S) 2,906 4.7 -7.6°
Reaches altitude 10° 02:17:53 10° 176° (S) 2,001 4.0 -8.0°
Maximum altitude 02:22:12 66° 259° (W) 688 2.0 -8.9°
Drops below altitude 10° 02:26:33 10° 342° (NNW) 2,009 4.8 -9.7°
Sets 02:28:46 0° 345° (NNW) 2,918 5.6 -10.1°
